This demonstration page uses our WeatherBlox Daily Observations layout. Learn more.

Left ArrowRight Arrow

39.01783, -85.05884

Hourly Observations for August 14, 2015

Temp ( °F °C ) Dew Point ( °F °C ) Humidity (%) Winds ( mph kmh ) Pressure ( in mb ) Visibility ( mi km ) Precip ( " mm )
12:52 am 00:52 Clear 68 20 60 15.6 76 76 N N/A 30.14 1021 10 16.0934 N/A
1:52 am 01:52 Clear 66 18.9 60 15.6 81 81 N N/A 30.13 1020 10 16.0934 N/A
2:52 am 02:52 Clear 65 18.3 59 15 81 81 N N/A 30.12 1020 10 16.0934 N/A
3:52 am 03:52 Clear 63 17.2 58 14.4 84 84 N N/A 30.13 1020 10 16.0934 N/A
4:52 am 04:52 Mostly Clear with Mist and Fog 59 15 57 13.9 93 93 N N/A 30.13 1020 6 9.65604 N/A
5:52 am 05:52 Mostly Clear 63 17.2 58 14.4 84 84 SSW 3 6 30.15 1021 10 16.0934 N/A
6:52 am 06:52 Partly Cloudy 64 17.8 58 14.4 81 81 NNW 3 6 30.17 1022 10 16.0934 N/A
7:52 am 07:52 Mostly Cloudy 62 16.7 60 15.6 93 93 N N/A 30.17 1022 7 11.26538 N/A
8:52 am 08:52 Mostly Cloudy 69 20.6 61 16.1 76 76 N N/A 30.18 1022 10 16.0934 N/A
9:52 am 09:52 Mostly Cloudy 75 23.9 60 15.6 60 60 N N/A 30.18 1022 10 16.0934 N/A
10:52 am 10:52 Mostly Cloudy 77 25 59 15 54 54 N N/A 30.19 1022 10 16.0934 N/A
11:52 am 11:52 Cloudy 77 25 61 16.1 58 58 N N/A 30.19 1022 10 16.0934 N/A
12:52 pm 12:52 Cloudy 79 26.1 63 17.2 58 58 N N/A 30.18 1022 10 16.0934 N/A
1:52 pm 13:52 Cloudy 80 26.7 62 16.7 54 54 N N/A 30.16 1022 10 16.0934 N/A
2:52 pm 14:52 Cloudy 81 27.2 63 17.2 54 54 NNW 3 6 30.16 1021 10 16.0934 N/A
3:52 pm 15:52 Mostly Cloudy 84 28.9 62 16.7 48 48 WNW 3 6 30.13 1020 10 16.0934 N/A
4:52 pm 16:52 Mostly Cloudy 84 28.9 62 16.7 48 48 VRB 3 6 30.12 1020 10 16.0934 N/A
5:52 pm 17:52 Mostly Cloudy 84 28.9 63 17.2 49 49 WNW 3 6 30.11 1020 10 16.0934 N/A
6:52 pm 18:52 Mostly Cloudy 80 26.7 65 18.3 60 60 SW 7 11 30.11 1020 10 16.0934 N/A
7:52 pm 19:52 Mostly Cloudy 78 25.6 65 18.3 64 64 SW 3 6 30.11 1020 10 16.0934 N/A
8:52 pm 20:52 Partly Cloudy 76 24.4 65 18.3 69 69 WSW 3 6 30.11 1020 10 16.0934 N/A
9:52 pm 21:52 Partly Cloudy 72 22.2 66 18.9 82 82 W 5 7 30.13 1020 10 16.0934 N/A
10:52 pm 22:52 Partly Cloudy 67 19.4 65 18.3 93 93 SSW 3 6 30.14 1021 8 12.87472 N/A
11:52 pm 23:52 Clear 69 20.6 65 18.3 87 87 N N/A 30.12 1020 10 16.0934 N/A

Powered by AerisWeather